Location: Derby
(52.9213°N, 1.4761°W)
Time: 14:26:17
(UTC+01:00)

Vanguard 1 - Visible Passes

Search period start: 18 May 2025 00:00
Search period end: 28 May 2025 00:00
Orbit: 650 x 3821 km, 34.2° (Epoch: 17 May)

Date Brightness Start Highest point End Pass type
(mag) Time Alt. Az. Time Alt. Az. Time Alt. Az.
18 May 11.8 22:35:47 10° WSW 22:41:34 17° SSW 22:45:17 12° S visible
19 May 11.9 22:55:34 10° WSW 23:00:21 15° SSW 23:03:35 11° S visible
20 May 12.1 23:15:52 10° WSW 23:19:02 12° SW 23:21:44 10° SSW visible
23 May 12.2 21:48:31 10° WSW 21:56:56 21° SSW 22:02:47 10° SSE visible
24 May 12.3 22:08:25 10° WSW 22:15:37 18° SW 22:20:53 10° S visible
25 May 12.5 22:28:48 10° WSW 22:34:12 14° SW 22:38:28 10° SSW visible
26 May 12.6 22:50:35 10° WSW 22:52:40 11° SW 22:54:34 10° SW visible
